www.pogodaiklimat.ru

Погода и климат >> Архив погоды >> Япония >> Тоёока


ПОГОДА в Тоёоке

  • Прогноз погоды в Тоёоке
  • Монитор погоды в Тоёоке

АРХИВ ПОГОДЫ в Тоёоке

Время (UTC), дата Ветер
(напр.,м/с)
 
Видим.   Явления Облачность Т
(С)
Тd
(С)
f
(%)
Тe
(С)
Тes
(С)
Комфортность P
(гПа)
Po
(гПа)
Тmin
(С)
Tmax
(С)
R
(мм)
R24
(мм)
S
(см)
10 13.09 ЮВ 1 20 км н/о +24.0 +19.9 78 +29 +29 душно 1012.8 1012.1
11 13.09 СВ 1 20 км н/о +22.7 +20.2 86 +29 +29 очень
душно
1013.5 1012.8
12 13.09 В 1 20 км н/о +21.8 +20.1 90 +27 +27 душно 1013.7 1013.0 +28.7
13 13.09 Ю 2 20 км н/о +21.4 +20.2 93 +27 +27 душно 1013.6 1012.9
14 13.09 В 1 18 км н/о +20.9 +19.9 94 +27 +27 душно 1013.4 1012.7
15 13.09 В 1 17 км н/о +20.9 +20.1 95 +27 +27 душно 1013.1 1012.4
16 13.09 СВ 1 20 км н/о +20.7 +19.7 94 +26 +26 душно 1012.6 1011.9
17 13.09 С 1 20 км н/о +20.7 +19.7 94 +27 +27 душно 1012.5 1011.8
18 13.09 С 1 20 км н/о +20.5 +19.5 94 +26 +26 душно 1012.4 1011.7
19 13.09 СВ 1 20 км н/о +20.5 +19.5 94 +26 +26 душно 1012.4 1011.7
21 13.09 В 1 20 км н/о +20.3 +19.3 94 +26 +26 душно 1012.7 1012.0
00 14.09 Ю 3 20 км н/о +27.3 +18.6 59 +32 +32 очень
душно
1012.8 1012.1 +20.0
01 14.09 Ю 3 20 км н/о +28.8 +18.9 55 +34 +34 очень
душно
1012.3 1011.6
02 14.09 ЮЗ 2 20 км н/о +30.1 +18.9 51 +35 +35 очень
душно
1011.5 1010.8
03 14.09 ЮВ 1 20 км н/о +30.9 +19.6 51 +37 +37 очень
душно
1010.8 1010.1
04 14.09 В 2 18 км н/о +32.1 +19.7 48 +38 +38 очень
душно
1009.9 1009.3
05 14.09 С 5 20 км н/о +30.4 +20.1 54 +37 +37 очень
душно
1009.7 1009.0
06 14.09 СЗ 4 20 км н/о +30.1 +19.8 54 +36 +36 очень
душно
1009.6 1008.9
07 14.09 С 3 20 км н/о +29.2 +19.5 56 +35 +35 очень
душно
1009.8 1009.1
08 14.09 С 2 20 км н/о +28.1 +20.7 64 +35 +35 очень
душно
1010.1 1009.4
09 14.09 З 2 20 км н/о +27.1 +20.7 68 +34 +34 очень
душно
1010.4 1009.7
10 14.09 СЗ 1 20 км н/о +26.0 +21.0 74 +33 +33 очень
душно
1010.7 1010.0
11 14.09 В 1 20 км н/о +24.5 +21.0 81 +31 +31 очень
душно
1011.1 1010.4
12 14.09 В 1 20 км н/о +24.2 +20.7 81 +30 +30 очень
душно
1011.2 1010.5 +32.5
13 14.09 ЮВ 1 20 км н/о +23.9 +21.2 85 +30 +30 очень
душно
1011.1 1010.4
14 14.09 В 1 20 км н/о +23.1 +21.2 89 +31 +31 очень
душно
1011.2 1010.5
15 14.09 ЮВ 1 20 км н/о +22.6 +21.2 92 +30 +30 очень
душно
1011.0 1010.3
16 14.09 В 1 20 км н/о +22.2 +21.0 93 +29 +29 очень
душно
1010.8 1010.1
17 14.09 Ю 1 20 км н/о +22.4 +21.0 92 +29 +29 очень
душно
1010.8 1010.1
18 14.09 ЮВ 1 20 км н/о +22.2 +20.8 92 +29 +29 очень
душно
1010.6 1009.9
19 14.09 Ю 1 20 км н/о +21.8 +20.8 94 +28 +28 душно 1010.3 1009.6
20 14.09 ЮВ 1 20 км н/о +21.5 +20.5 94 +27 +27 душно 1010.4 1009.7
21 14.09 ЮВ 1 20 км н/о +21.2 +20.4 95 +26 +26 душно 1010.3 1009.6
22 14.09 ЮВ 2 20 км н/о +21.9 +20.4 91 +28 +28 душно 1010.3 1009.6
23 14.09 ЮВ 1 20 км н/о +23.6 +20.6 83 +29 +29 душно 1010.5 1009.8
00 15.09 В 1 20 км н/о +25.9 +20.9 74 +32 +32 очень
душно
1010.6 1009.9 +21.1
01 15.09 ЮВ 2 20 км н/о +27.9 +19.7 61 +34 +34 очень
душно
1010.1 1009.4
02 15.09 С 2 20 км н/о +30.0 +20.3 56 +37 +37 очень
душно
1009.3 1008.6
03 15.09 С 3 20 км н/о +29.6 +21.3 61 +37 +37 очень
душно
1008.8 1008.1
04 15.09 С 3 20 км н/о +30.2 +21.6 60 +38 +38 очень
душно
1008.3 1007.6
05 15.09 С 4 20 км н/о +29.7 +22.4 65 +39 +39 очень
душно
1008.0 1007.3
06 15.09 С 3 20 км н/о +29.2 +21.4 63 +37 +37 очень
душно
1007.8 1007.1
07 15.09 С 3 20 км н/о +28.0 +22.0 70 +36 +36 очень
душно
1007.7 1007.0
08 15.09 С 3 20 км н/о +27.5 +21.8 71 +35 +35 очень
душно
1007.8 1007.1
09 15.09 СЗ 3 20 км н/о +26.4 +21.8 76 +34 +34 очень
душно
1008.0 1007.3
10 15.09 З 2 20 км н/о +25.2 +21.5 80 +32 +32 очень
душно
1008.2 1007.5
11 15.09 СЗ 1 20 км н/о +24.8 +21.5 82 +32 +32 очень
душно
1008.7 1008.0
12 15.09 СЗ 1 20 км н/о +23.8 +21.5 87 +30 +30 очень
душно
1008.8 1008.1 +31.0
13 15.09 В 1 20 км н/о +23.2 +21.7 91 +31 +31 очень
душно
1008.4 1007.7
14 15.09 В 1 20 км н/о +22.9 +21.4 91 +30 +30 очень
душно
1008.2 1007.5
16 15.09 ЮВ 1 19 км н/о +22.7 +21.3 92 +30 +30 очень
душно
1007.5 1006.8
17 15.09 ЮВ 1 18 км н/о +22.5 +21.5 94 +30 +30 очень
душно
1007.5 1006.8
18 15.09 Ю 1 16 км н/о +22.2 +21.4 95 +29 +29 очень
душно
1007.3 1006.6
19 15.09 штиль 0 14 км н/о +22.0 +21.3 96 +29 +29 очень
душно
1007.0 1006.3
21 15.09 В 1 9000 м дымка н/о +21.3 +21.0 98 +27 +27 душно 1006.7 1006.0
22 15.09 ЮВ 1 10 км н/о +21.6 +21.3 98 +28 +28 очень
душно
1006.7 1006.0
23 15.09 В 1 18 км н/о +23.2 +21.7 91 +31 +31 очень
душно
1006.6 1005.9
00 16.09 С 4 20 км н/о +26.2 +21.4 75 +33 +33 очень
душно
1006.8 1006.1 +21.2
01 16.09 С 4 20 км слаб. дождь н/о +25.9 +21.4 76 +33 +33 очень
душно
1006.8 1006.1
03 16.09 СЗ 5 20 км {дождь} н/о +27.3 +20.4 66 +34 +34 очень
душно
1006.0 1005.3
04 16.09 СЗ 4 20 км н/о +27.2 +20.1 65 +33 +33 очень
душно
1005.9 1005.2
05 16.09 С 4 20 км слаб. дождь н/о +26.4 +20.7 71 +33 +33 очень
душно
1005.8 1005.1
07 16.09 С 4 20 км н/о +25.9 +20.7 73 +32 +32 очень
душно
1005.9 1005.2
08 16.09 С 3 20 км н/о +25.9 +20.9 74 +32 +32 очень
душно
1006.3 1005.6
09 16.09 С 4 14 км слаб. дождь н/о +24.9 +21.2 80 +31 +31 очень
душно
1006.6 1005.9
10 16.09 С 3 20 км в посл. час дождь н/о +24.5 +20.8 80 +31 +31 очень
душно
1006.9 1006.2
11 16.09 СЗ 2 20 км н/о +24.4 +21.1 82 +31 +31 очень
душно
1007.4 1006.7
12 16.09 СЗ 1 20 км слаб. дождь н/о +23.9 +21.4 86 +30 +30 очень
душно
1007.8 1007.1 +28.3 0.0
13 16.09 З 2 20 км слаб. дождь н/о +23.5 +21.8 90 +30 +30 очень
душно
1008.0 1007.3
14 16.09 СЗ 2 20 км в посл. час дождь н/о +24.3 +21.6 85 +31 +31 очень
душно
1008.2 1007.5
15 16.09 С 2 20 км {дождь} н/о +24.4 +20.9 81 +31 +31 очень
душно
1008.4 1007.7
16 16.09 С 2 20 км слаб. дождь н/о +24.1 +21.2 84 +30 +30 очень
душно
1008.8 1008.1
17 16.09 С 2 20 км в посл. час дождь н/о +24.1 +21.0 83 +30 +30 очень
душно
1009.1 1008.4
18 16.09 С 3 20 км слаб. дождь н/о +24.4 +20.5 79 +30 +30 очень
душно
1009.2 1008.5 0.5
19 16.09 С 3 20 км слаб. дождь н/о +24.0 +20.7 82 +30 +30 очень
душно
1009.6 1008.9
20 16.09 С 3 20 км в посл. час дождь н/о +24.2 +20.3 79 +30 +30 очень
душно
1010.3 1009.6
21 16.09 С 2 20 км слаб. дождь н/о +23.9 +20.6 82 +30 +30 очень
душно
1010.7 1010.0
22 16.09 С 2 20 км в посл. час дождь н/о +24.6 +20.5 78 +31 +31 очень
душно
1010.9 1010.2
23 16.09 С 3 20 км слаб. дождь н/о +25.5 +20.8 75 +32 +32 очень
душно
1011.4 1010.7
01 17.09 С 5 20 км в посл. час дождь н/о +26.0 +20.6 72 +32 +32 очень
душно
1012.4 1011.7
02 17.09 С 5 20 км н/о +28.0 +20.6 64 +35 +35 очень
душно
1012.2 1011.5
03 17.09 СВ 4 20 км {дождь} н/о +28.1 +20.4 63 +35 +35 очень
душно
1011.8 1011.1
04 17.09 С 5 20 км слаб. дождь н/о +25.4 +19.8 71 +31 +31 очень
душно
1011.8 1011.1
05 17.09 СВ 5 20 км в посл. час дождь н/о +26.3 +18.7 63 +31 +31 душно 1011.6 1010.9
06 17.09 С 4 20 км {дождь} н/о +26.2 +18.9 64 +31 +31 очень
душно
1011.8 1011.1 0.5
07 17.09 С 4 20 км н/о +26.1 +18.3 62 +31 +31 очень
душно
1012.2 1011.5
08 17.09 С 3 20 км н/о +25.3 +17.8 63 +30 +30 душно 1012.4 1011.7
09 17.09 С 2 20 км н/о +24.6 +17.8 66 +29 +29 душно 1012.2 1011.5
10 17.09 З 2 20 км н/о +23.8 +18.5 72 +28 +28 душно 1012.6 1011.9
11 17.09 ЮЗ 1 20 км н/о +23.6 +18.7 74 +28 +28 душно 1012.8 1012.1
12 17.09 ЮВ 1 20 км н/о +22.4 +19.4 83 +28 +28 душно 1012.9 1012.2 +28.6 0.5
13 17.09 СВ 1 20 км н/о +21.8 +19.6 87 +27 +27 душно 1013.0 1012.3
14 17.09 Ю 2 20 км н/о +21.3 +19.2 88 +26 +26 душно 1012.7 1012.0
15 17.09 ЮВ 1 20 км н/о +20.5 +19.2 92 +26 +26 душно 1012.8 1012.1
16 17.09 В 1 20 км н/о +20.6 +19.3 92 +26 +26 душно 1012.6 1011.9
17 17.09 З 1 20 км н/о +20.5 +19.2 92 +26 +26 душно 1012.3 1011.6
18 17.09 Ю 1 20 км н/о +20.6 +19.3 92 +26 +26 душно 1012.1 1011.4
20 17.09 В 1 20 км н/о +20.8 +19.5 92 +27 +27 душно 1012.3 1011.6
23 17.09 СВ 1 20 км н/о +21.8 +19.9 89 +27 +27 душно 1013.1 1012.4
00 18.09 З 1 11 км н/о +24.8 +20.1 75 +30 +30 душно 1012.8 1012.1 +20.3
01 18.09 С 2 20 км н/о +26.0 +18.7 64 +31 +31 очень
душно
1012.6 1011.9
02 18.09 С 3 20 км н/о +25.8 +19.0 66 +31 +31 очень
душно
1012.5 1011.8
03 18.09 С 3 20 км н/о +26.0 +19.4 67 +31 +31 очень
душно
1011.7 1011.0
04 18.09 С 5 20 км н/о +26.8 +18.9 62 +32 +32 очень
душно
1011.8 1011.1
05 18.09 С 5 20 км н/о +25.4 +17.9 63 +30 +30 душно 1012.0 1011.3
06 18.09 С 4 20 км н/о +25.9 +16.5 56 +29 +29 душно 1012.4 1011.7
07 18.09 С 4 20 км н/о +25.3 +16.5 58 +29 +29 душно 1012.9 1012.2
09 18.09 С 2 20 км н/о +23.7 +16.5 64 +27 +27 жарко 1013.4 1012.7
10 18.09 СЗ 2 20 км н/о +22.7 +17.0 70 +27 +27 душно 1013.8 1013.1
11 18.09 СЗ 2 20 км н/о +22.4 +16.4 69 +27 +27 душно 1014.5 1013.8
12 18.09 СЗ 1 20 км н/о +22.1 +16.4 70 +26 +26 душно 1014.8 1014.1 +27.8
13 18.09 СЗ 1 20 км н/о +21.2 +17.6 80 +25 +25 комфорт 1014.9 1014.2
14 18.09 Ю 1 20 км н/о +19.9 +17.3 85 +24 +24 комфорт 1015.0 1014.3
15 18.09 Ю 1 20 км н/о +19.3 +17.3 88 +22 +22 комфорт 1014.8 1014.1
16 18.09 ЮВ 1 20 км н/о +19.0 +17.3 90 +22 +22 комфорт 1014.8 1014.1
17 18.09 С 3 20 км в посл. час дождь н/о +21.6 +18.0 80 +26 +26 душно 1015.0 1014.3
18 18.09 С 4 20 км в посл. час дождь н/о +22.2 +17.1 73 +27 +27 душно 1015.6 1014.9 0.0
19 18.09 С 4 20 км н/о +22.0 +16.3 70 +26 +26 душно 1016.1 1015.4
20 18.09 С 3 20 км в посл. час дождь н/о +21.7 +15.1 66 +25 +25 комфорт 1016.4 1015.7
21 18.09 С 4 20 км в посл. час дождь н/о +21.6 +14.8 65 +25 +25 комфорт 1016.7 1016.0
22 18.09 С 4 20 км н/о +21.5 +14.2 63 +24 +24 комфорт 1017.4 1016.7
23 18.09 С 3 20 км н/о +22.1 +14.0 60 +25 +25 комфорт 1017.4 1016.7
00 19.09 С 4 20 км {дождь} н/о +22.7 +13.8 57 +26 +26 жарко 1017.6 1016.9 +18.9 0.0
01 19.09 С 4 20 км н/о +22.9 +12.8 53 +26 +26 жарко 1018.1 1017.4
02 19.09 С 4 13 км н/о +23.2 +12.2 50 +26 +26 жарко 1018.5 1017.8
03 19.09 С 4 15 км н/о +24.0 +12.6 49 +26 +26 жарко 1018.1 1017.4
04 19.09 С 4 15 км н/о +23.0 +12.6 52 +26 +26 жарко 1017.6 1016.9
05 19.09 СВ 4 20 км н/о +22.6 +11.7 50 +25 +25 комфорт 1016.7 1016.0
06 19.09 С 3 20 км н/о +22.8 +11.5 49 +25 +25 комфорт 1016.4 1015.7
07 19.09 СВ 3 20 км н/о +22.6 +11.7 50 +25 +25 комфорт 1016.1 1015.4
08 19.09 С 3 20 км н/о +21.7 +12.3 55 +24 +24 комфорт 1016.7 1016.0
09 19.09 С 3 20 км н/о +21.0 +12.4 58 +24 +24 комфорт 1017.2 1016.5
10 19.09 СЗ 2 20 км н/о +19.2 +13.4 69 +21 +21 комфорт 1017.7 1017.0
11 19.09 ЮВ 1 20 км н/о +17.8 +14.1 79 +19 +19 1018.1 1017.4
12 19.09 Ю 1 20 км н/о +16.8 +13.9 83 +18 +18 1018.0 1017.3 +24.4
13 19.09 ЮВ 2 20 км н/о +16.0 +13.5 85 +16 +16 1017.7 1017.0
14 19.09 ЮВ 1 20 км н/о +16.2 +13.5 84 +17 +17 1017.7 1017.0
15 19.09 З 1 20 км н/о +16.1 +13.6 85 +17 +17 1017.7 1017.0
16 19.09 ЮВ 1 20 км н/о +15.1 +13.5 90 +16 +16 1017.4 1016.7
18 19.09 Ю 1 20 км н/о +14.2 +13.1 93 +14 +14 1017.6 1016.9
19 19.09 ЮВ 1 20 км н/о +14.1 +13.2 94 +14 +14 1017.8 1017.1
20 19.09 ЮВ 1 20 км н/о +14.1 +13.0 93 +14 +14 1018.0 1017.3
21 19.09 Ю 1 20 км н/о +14.1 +13.0 93 +14 +14 1018.4 1017.7
22 19.09 ЮВ 1 20 км н/о +14.4 +13.0 91 +15 +15 1018.8 1018.1
23 19.09 В 1 20 км н/о +16.1 +13.4 84 +17 +17 1018.6 1017.9
00 20.09 ЮВ 1 20 км н/о +17.5 +13.8 79 +19 +19 1018.3 1017.6 +13.8
01 20.09 В 1 20 км н/о +19.4 +14.5 73 +22 +22 комфорт 1018.4 1017.7
02 20.09 Ю 1 15 км н/о +21.9 +14.1 61 +25 +25 комфорт 1018.0 1017.3
03 20.09 СВ 4 17 км н/о +24.3 +12.6 48 +26 +26 жарко 1017.6 1016.9
04 20.09 С 4 19 км н/о +24.9 +13.5 49 +27 +27 жарко 1017.3 1016.6
05 20.09 С 4 20 км н/о +25.1 +14.3 51 +28 +28 жарко 1017.3 1016.6
06 20.09 СВ 4 20 км н/о +24.3 +14.7 55 +27 +27 жарко 1017.3 1016.6
07 20.09 С 5 20 км н/о +23.2 +15.5 62 +27 +27 душно 1017.4 1016.7
08 20.09 СВ 3 20 км н/о +22.8 +15.4 63 +27 +27 душно 1017.9 1017.2
09 20.09 ЮЗ 2 20 км н/о +22.4 +15.8 66 +26 +26 жарко 1018.6 1017.9
10 20.09 В 2 20 км н/о +21.1 +16.9 77 +25 +25 комфорт 1019.0 1018.3
11 20.09 ЮЗ 1 20 км н/о +20.7 +16.7 78 +26 +26 душно 1019.1 1018.4

 

Местоположение метеостанции Тоёока (Япония): широта 35.53 долгота 134.81 высота над уровнем моря 4 м.

В архиве по умолчанию представлена погода в Тоёоке за последнюю неделю. Архивные данные за месяц целиком и за предыдущие месяцы, начиная с января 2011 года, Вы можете получить, выбрав интересующий диапазон дат из раскрывающегося списка и нажав кнопку "Ввод!".


*Определитесь, кто Вы:
робот инопланетянин человек

Внимание! Время в таблицах - всемирное. Для получения местного времени необходимо прибавить поправку, которая равна 9 ч.

Смотрите также архив погоды в соседних городах и на ближайших метеорологических станциях:

Погода в Майдзуру (Япония) (46 км)
Погода в Тоттори (Япония) (56 км)
Погода в Химедзи (Япония) (79 км)
Погода в Цуяме (Япония) (89 км)
Погода в Кобе (Япония) (99 км)
Погода в Киото (Япония) (101 км)
Погода в Цуруге (Япония) (114 км)
Погода в Осаке (Япония) (114 км)
Погода в Окаяме (Япония) (126 км)
Погода в Наре (Япония) (131 км)

Пояснения к столбцам:

Ветер - указаны скорость ветра в м/с - средняя за 10 мин, порывы в срок и между сроками (в фигурных скобках) и направление, откуда дует ветер: С - северный, СВ - северо-восточный, В - восточный, ЮВ - юго-восточный, Ю - южный, ЮЗ - юго-западный, З - западный, СЗ - северо-западный.
Видимость - горизонтальная дальность видимости в метрах или километрах. При видимости от 1 до 10 км при отсутствии осадков обычно наблюдается дымка, при ухудшении видимости до 1 км и менее - туман. В сухую погоду видимость может ухудшаться дымом, пылью или мглою.
Явления - указаны атмосферные явления, наблюдавшиеся в срок или в последний час перед сроком; фигурными скобками обозначены явления, наблюдавшиеся между сроками (за 1-3 часа до срока); квадратными скобками обозначены град или гололедные отложения с указанием их диаметра в мм.
Облачность - указаны через наклонную черту общая и нижняя облачность в баллах и высота нижней границы облаков в метрах; квадратными скобками обозначены формы облаков: Ci - перистые, Cs - перисто-слоистые, Cc - перисто-кучевые, Ac - высококучевые, As - высокослоистые, Sc - слоисто-кучевые, Ns - слоисто-дождевые, Cu - кучевые, Cb - кучево-дождевые. Подробнее классификацию облаков см. в Атласе облаков (PDF).
T - Температура воздуха - температура, измеренная на высоте 2 м над землей.
Td - Температура точки росы - температура, при понижении до которой содержащийся в воздухе водяной пар достигнет насыщения.
f - Относительная влажность воздуха - влажноcть воздуха, измеренная на высоте 2 м над землей.
Te - Эффективная температура - температура, которую ощущает одетый по сезону человек в тени. Характеристика душности погоды. При расчете учитывается влияние влажности воздуха и скорости ветра на теплоощущения человека.
Tes - Эффективная температура на солнце - температура, которую ощущает человек, с поправкой на солнечный нагрев. Характеристика знойности погоды. Зависит от высоты солнца над горизонтом, облачности и скорости ветра. Ночью, в пасмурную погоду, а также при ветре 12 м/с и более поправка равна нулю.
P - Атмосферное давление - приведенное к уровню моря атмосферное давление.
Po - Атмосферное давление - измеренное на уровне метеостанции атмосферное давление.
Tmin - Минимальная температура - минимум температуры воздуха на высоте 2 м над землей.
Tmax - Максимальная температура - максимум температуры воздуха на высоте 2 м над землей.
R - Количество осадков - Количество выпавших осадков за период времени, мм. При наведении курсора мыши на число - период времени, за который выпало указанное количество осадков.
R24 - Количество осадков - Количество выпавших осадков за 24 часа, мм.
S - Снежный покров - Высота снежного покрова, см. При наведении курсора мыши на число - состояние снежного покрова и степень покрытия местности в баллах.